Regional Weather Roundup
Issued by NWS

Home | Current Version | Previous Version | Text Only | Print | Product List | Glossary Off
Versions: 1 2 3 4 5 6 7 8 9 10 11 12 13 14 15 16 17 18 19 20 21 22 23 24 25 26 27 28 29 30 31 32 33 34 35 36 37 38 39 40 41 42 43 44 45 46 47 48 49 50

000
ASUS45 KTFX 270719
RWRMT
MONTANA HOURLY WEATHER ROUNDUP
NATIONAL WEATHER SERVICE GREAT FALLS MT
119 AM MDT FRI MAR 27 2015

NOTE: "FAIR" INDICATES FEW OR NO CLOUDS BELOW 12000 FEET WITH NO
SIGNIFICANT WEATHER AND/OR OBSTRUCTIONS TO VISIBILITY.

* THESE STATIONS ARE NOT UNDER NWS QUALITY CONTROL. THEY DO NOT
   REPORT WEATHER SUCH AS PRECIPITATION OR FOG.

MTZ001>007-043-270800-
WEST OF THE DIVIDE
CITY           SKY/WX    TMP DP  RH WIND       PRES   REMARKS
KALISPELL      FOG       34  34 100 CALM      30.23S VSB 1/2
MISSOULA       CLEAR     39  36  89 CALM      30.28S
BUTTE          PTCLDY    39  32  76 CALM      30.29F
MULLAN PASS    CLEAR     41  36  82 S7        30.26F
* ESSEX        N/A       36  34  92 N/A        N/A
* EUREKA APT   PTCLDY    46  39  77 S6        30.21S
* HAMILTON APT CLEAR     45  36  71 CALM      30.27F
* LIBBY APT    CLEAR     37  36  96 CALM      30.22S
* LINCOLN      N/A       47  37  68 SW3G10     N/A
* LOOKOUT PASS N/A       38  38 100 S1         N/A
* POLSON       N/A       43  40  89 SE1        N/A
* SEELEY LAKE  N/A       33  32  96 NE1        N/A
* THOMP F APT  CLEAR     41  31  68 N4G9       N/A
* YAAK HILL    N/A       41  38  89 N/A        N/A
$$

MTZ008-052>055-270800-
SOUTHWEST MONTANA
CITY           SKY/WX    TMP DP  RH WIND       PRES   REMARKS
BOZEMAN        PTCLDY    37  32  82 SE8       30.24F WCI  31
DILLON         PTCLDY    45  32  60 S10       30.28S
* W YELLOWSTON CLEAR     29  27  92 N/A        N/A
* BOULDER HILL N/A       46  28  50 E7G12      N/A
* HOMESTAKE PS N/A       40  32  73 W8G13      N/A   WCI  35
* MONIDA PASS  N/A       36  31  82 S8         N/A   WCI  30
* RAYNOLDS PAS N/A       33  16  50 S8         N/A   WCI  26
* WHITEHALL    N/A       51  34  52 NE2G11     N/A
* WISE RIVER   N/A       37  31  79 S5         N/A   WCI  33
$$

MTZ009>010-012-014-046-048-049-054-270800-
EAST SLOPES AND CENTRAL MONTANA
CITY           SKY/WX    TMP DP  RH WIND       PRES   REMARKS
CUT BANK       MOCLDY    52  36  55 W26G37    30.06S
GREAT FALLS    PTCLDY    46  36  68 SW10      30.11F
HELENA         PTCLDY    52  36  55 CALM      30.21S
MALMSTROM AFB  PTCLDY    50  37  61 SW15      30.11F
* DEARBORN     N/A       49  36  61 S4         N/A
* EAST GLACIER N/A       47  35  63 W27G36     N/A
* MONARCH      N/A       45  27  49 S9G14      N/A
* PENDROY      N/A       51  32  48 W15G24     N/A
* ROGERS PASS  N/A       44  35  71 SE11G22    N/A
* WHITE SULPH  N/A       45  32  60 W3         N/A
$$

MTZ011-013-016-021-035-040-045-047-050-051-270800-
NORTH CENTRAL MONTANA
CITY           SKY/WX    TMP DP  RH WIND       PRES   REMARKS
HAVRE          CLOUDY    48  39  71 SW12      30.02F
LEWISTOWN      MOCLDY    46  36  68 W13       30.11F
* N BAR RANCH  CLEAR     48  34  59 W5        30.10S
* CHINOOK      CLOUDY    54  39  57 SW9       30.01S
* CHESTER      N/A       51  38  61 NW9G16     N/A
* DENTON       N/A       49  33  54 SW12       N/A
* GEYSER       N/A       51  32  48 SW19G24    N/A
* JUDITH GAP   N/A       46  34  63 W14G21     N/A
* LOMA         N/A       52  37  57 W8         N/A
$$

MTZ017>020-022>027-061-062-270800-
NORTHEAST MONTANA
CITY           SKY/WX    TMP DP  RH WIND       PRES   REMARKS
GLASGOW        CLOUDY    39  32  76 E14       29.98F WCI  31
GLENDIVE       CLOUDY    39  34  82 S7        30.05F WCI  34
JORDAN         MOCLDY    39  34  82 W6        30.02S WCI  35
SIDNEY         CLOUDY    37  30  76 SE7       30.07F WCI  32
WOLF POINT     CLOUDY    39  34  82 E6        30.02F WCI  35
* BEAVER HILL  N/A       37  32  82 SE16       N/A   WCI  28
* CIRCLE       N/A       44  34  68 SW2        N/A
* LINDSAY DVD  N/A       38  33  82 SE2        N/A
* NAVAJO       N/A       35  31  85 S11        N/A   WCI  27
* PLENTYWOOD A MOCLDY    36  30  79 SE10      30.03F WCI  29
* POPLAR APT   CLOUDY    39  34  82 CALM      30.03F
* SACO         N/A       40  34  79 SE5        N/A   WCI  36
$$

MTZ028>042-056>058-270800-
SOUTHCENTRAL AND SOUTHEAST MONTANA
CITY           SKY/WX    TMP DP  RH WIND       PRES   REMARKS
BAKER          CLOUDY    37  30  76 SE15      30.07F WCI  28
BILLINGS       MOCLDY    54  34  47 W12       30.11S
LIVINGSTON     PTCLDY    52  34  50 W20       30.19F
MILES CITY     CLOUDY    45  30  56 S8        30.03F
* BIG TIMBER A PTCLDY    52  34  50 W24G39    30.13F
* FORSYTH APT  CLOUDY    45  39  80 CALM      30.03F
* ALZADA       N/A       34  29  82 E6         N/A   WCI  29
* HYSHAM       N/A       50  33  52 W3         N/A
* LAME DEER    N/A       48  38  68 W8         N/A
* REED POINT   N/A       55  32  42 W13G21     N/A
* ROSCOE HILL  N/A       52  18  26 SE2        N/A
$$

REGIONAL REPORTS...DAKOTAS
CITY           SKY/WX    TMP DP  RH WIND       PRES   REMARKS
WILLISTON      CLOUDY    37  28  70 S6        30.09F WCI  32
DICKINSON      CLOUDY    32  27  82 S12       30.09F WCI  23
BEACH          CLOUDY    34  32  92 S13       30.07F WCI  25
CROSBY         CLEAR     34  28  79 S15G20    30.08F WCI  24
TIOGA          CLOUDY    32  27  82 S13G18    30.12F WCI  22
WATFORD CITY   CLEAR     36  28  73 S10       30.08F WCI  29
BISMARCK       MOCLDY    25  16  69 SE9       30.23F WCI  16
GRAND FORKS    CLEAR     16  10  77 CALM      30.30F
FARGO          CLEAR     10   5  80 NW3       30.31S
BUFFALO SD     MOCLDY    34  30  85 S12       30.05F WCI  25
RAPID CITY     CLOUDY    34  27  76 SE8       30.14F WCI  27
$$

REGIONAL REPORTS...WYOMING/IDAHO/WASHINGTON
CITY           SKY/WX    TMP DP  RH WIND       PRES   REMARKS
GILLETTE       CLOUDY    43  39  86 S5        30.11F
SHERIDAN       CLOUDY    46  37  71 W3        30.11F
CODY           PTCLDY    54  30  40 W21G31    30.14F
YELLOWSTONE LA PTCLDY    28  25  89 CALM      30.38F
SALMON         CLEAR     39  32  76 CALM      30.31R
MULLAN PASS    CLEAR     41  36  82 S7        30.26S
SAND POINT     FOG       41  41 100 CALM      30.23S VSB 1 1/4
SPOKANE        PTCLDY    48  45  89 NE5       30.20F
$$

REGIONAL REPORTS...ALBERTA
CITY           SKY/WX    TMP DP  RH WIND       PRES   REMARKS
CALGARY        MOCLDY    54  32  43 W12G24    29.99F
LETHBRIDGE     CLOUDY    55  37  51 W31G40    30.00F
MEDICINE HAT   MOCLDY    50  39  66 W3        29.98S
EDMONTON       MOCLDY    37  32  82 SW2       29.90S
WATERTON GATE  N/A       48  36  63 SW20G36    N/A
CARDSTON       N/A       52  36  55 W9G17      N/A
MILK RIVER     N/A       48  37  66 W12        N/A
$$

REGIONAL REPORTS...SASKATCHEWAN
CITY           SKY/WX    TMP DP  RH WIND       PRES   REMARKS
SWIFT CURRENT  CLOUDY    39  32  76 SW12      29.92F WCI  32
REGINA         LGT SNOW  32  30  92 SE14      30.02F WCI  22
VAL MARIE      N/A       36  32  85 W2         N/A
ASSINIBOIA     N/A       37  32  82 S10        N/A   WCI  30
CORONACH       N/A       36  32  85 SE12       N/A   WCI  28

$$



USA.gov is the U.S. government's official web portal to all federal, state and local government web resources and services.